September 26, 2022

Time Code Weather Temp. Visibility Ceiling Wind METAR/SPECI
20:25
V
13 °C 10 km+ 4,000 ft 340° 340° 10 kt METAR EHMA 261825Z AUTO 34010KT 9999 FEW015CB SCT028 BKN040 13/10 Q0993
19:55
V
14 °C 10 km+ - 320° 320° 17 kt METAR EHMA 261755Z AUTO 32017KT 9999 FEW018CB SCT033 14/09 Q0993
19:25
V
13 °C 10 km+ 3,000 ft 320° 320° 19 kt METAR EHMA 261725Z AUTO 32019KT 9999 FEW015CB SCT025 BKN030 13/10 Q0993 RERA
18:55
M
12 °C 7 km - 320° 320° 15 kt METAR EHMA 261655Z AUTO 32015KT 7000 RADZ FEW015 SCT028 12/10 Q0993
18:25
V
13 °C 10 km+ 3,900 ft 300° 300° 19 kt METAR EHMA 261625Z AUTO 30019KT 9999 FEW015 SCT020 BKN039 13/10 Q0993
17:55
L
14 °C 0 m - 300° 300° 17 kt METAR EHMA 261555Z AUTO 30017KT //// // FEW019 SCT022 14/08 Q0993 RE//
17:25
V
14 °C 10 km+ - 290° 290° 18 kt METAR EHMA 261525Z AUTO 29018KT 9999 FEW016/// SCT045/// 14/09 Q0993
16:55
L
13 °C 0 m - 290° 290° 23 kt METAR EHMA 261455Z AUTO 29023KT //// // FEW000 SCT019 13/10 Q0993 RE//
16:25
M
13 °C 5 km - 240° 240° 14 kt METAR EHMA 261425Z AUTO 24014KT 210V280 5000 SHRA FEW010 13/11 Q0994 RE//
15:55
L
14 °C 0 m - 220° 220° 16 kt METAR EHMA 261355Z AUTO 22016KT //// // FEW046 14/12 Q0994 RE//
15:25
L
14 °C 0 m - 230° 230° 15 kt METAR EHMA 261325Z AUTO 23015KT //// // FEW001 SCT041 14/11 Q0994 RE//
14:55
L
13 °C 0 m 3,900 ft 200° 200° 14 kt METAR EHMA 261255Z AUTO 20014KT //// // FEW001 SCT010 BKN039 13/12 Q0994 RE//
14:25
L
13 °C 0 m 2,300 ft Var Var 17 kt METAR EHMA 261225Z AUTO VRB17KT //// // FEW000 SCT009 BKN023 13/12 Q0994 RE//
13:55
L
12 °C 0 m 1,800 ft Var Var 19 kt METAR EHMA 261155Z AUTO VRB19KT //// // FEW000 SCT004 BKN018 12/11 Q0994 RE//
13:25
L
12 °C 0 m 600 ft Var Var 26 kt METAR EHMA 261125Z AUTO VRB26KT //// // FEW003 SCT005 BKN006 12/11 Q0994 RE//
12:55
L
12 °C 0 m 600 ft 200° 200° 31 kt METAR EHMA 261055Z AUTO 20031KT 160V260 //// // FEW005 BKN006 BKN007 12/11 Q0994 RE//
12:25
L
12 °C 0 m 600 ft Var Var 30 kt METAR EHMA 261025Z AUTO VRB30KT //// // FEW005 BKN006 BKN007 12/11 Q0994 RE//
11:55
L
12 °C 0 m 700 ft 210° 210° 31 kt METAR EHMA 260955Z AUTO 21031KT 160V290 //// // FEW002 SCT006 BKN007 12/11 Q0994 RE//
11:25
L
12 °C 0 m 1,700 ft Var Var 29 kt METAR EHMA 260925Z AUTO VRB29KT //// // FEW007 SCT011 BKN017 12/10 Q0995 RE//
10:55
L
12 °C 0 m 2,800 ft Var Var 31 kt METAR EHMA 260855Z AUTO VRB31KT //// // FEW008 SCT021 BKN028 12/10 Q0995 RE//
10:25
L
13 °C 0 m 2,700 ft Var Var 31 kt METAR EHMA 260825Z AUTO VRB31KT //// // FEW013 SCT020 BKN027 13/10 Q0995 RE//
09:55
L
12 °C 0 m 3,200 ft Var Var 30 kt METAR EHMA 260755Z AUTO VRB30KT //// // FEW013 SCT020 BKN032 12/10 Q0996 RE//
09:25
L
13 °C 0 m 3,700 ft 200° 200° 33 kt METAR EHMA 260725Z AUTO 20033KT 170V260 //// // FEW019 SCT032 BKN037 13/10 Q0996 RE//
08:55
L
13 °C 0 m 4,400 ft Var Var 30 kt METAR EHMA 260655Z AUTO VRB30KT //// // FEW026 SCT039 BKN044 13/10 Q0997 RE//
08:25
L
13 °C 0 m 4,500 ft Var Var 31 kt METAR EHMA 260625Z AUTO VRB31KT //// // FEW016 SCT023 BKN045 13/10 Q0997 RE//
07:55
L
12 °C 0 m 2,300 ft 200° 200° 27 kt METAR EHMA 260555Z AUTO 20027KT 170V250 //// // FEW016 SCT019 BKN023 12/11 Q0997 RE//
07:25
L
12 °C 0 m 3,200 ft 200° 200° 28 kt METAR EHMA 260525Z AUTO 20028KT 100V270 //// // FEW015CB SCT022 BKN032 12/11 Q0998 RE//
06:55
L
13 °C 0 m 3,300 ft 200° 200° 28 kt METAR EHMA 260455Z AUTO 20028KT 110V250 //// // FEW015CB SCT029 BKN033 13/10 Q0998 RE//
06:25
L
12 °C 0 m 4,700 ft 200° 200° 26 kt METAR EHMA 260425Z AUTO 20026KT 160V260 //// // FEW015CB SCT037 BKN047 12/10 Q0999 RE//
05:55
L
12 °C 0 m - 200° 200° 27 kt METAR EHMA 260355Z AUTO 20027KT 170V250 //// // FEW015CB SCT041 12/10 Q1000 RE//
05:25
L
12 °C 0 m - 200° 200° 25 kt METAR EHMA 260325Z AUTO 20025KT 150V260 //// // FEW031 SCT043 12/10 Q1000 RE//
04:55
L
12 °C 0 m - 200° 200° 24 kt METAR EHMA 260255Z AUTO 20024KT 170V260 //// // FEW015CB SCT042 12/10 Q1001 RE//
04:25
L
12 °C 0 m - 210° 210° 21 kt METAR EHMA 260225Z AUTO 21021KT 100V270 //// // FEW015CB SCT046 12/10 Q1002 RE//
03:55
L
13 °C 0 m - 180° 180° 19 kt METAR EHMA 260155Z AUTO 18019KT //// // FEW015CB SCT045 13/10 Q1003 RE//
03:25
L
13 °C 0 m 4,900 ft Var Var 20 kt METAR EHMA 260125Z AUTO VRB20KT //// // FEW029 SCT034 BKN049 13/10 Q1003 RE//
02:55
L
13 °C 0 m - Var Var 22 kt METAR EHMA 260055Z AUTO VRB22KT //// // FEW015CB 13/10 Q1004
02:25
V
13 °C 10 km+ - Var Var 21 kt METAR EHMA 260025Z AUTO VRB21KT 9999 NSC 13/10 Q1004
01:55
V
13 °C 10 km+ 4,200 ft Var Var 20 kt METAR EHMA 252355Z AUTO VRB20KT 9999 -DZ FEW025 SCT037 BKN042 13/09 Q1005 REDZ
01:25
V
13 °C 10 km+ - Var Var 14 kt METAR EHMA 252325Z AUTO VRB14KT 9999 -DZ FEW025 SCT037 13/09 Q1006
00:55
V
14 °C 10 km+ - 240° 240° 16 kt METAR EHMA 252255Z AUTO 24016KT 9999 NSC 14/09 Q1007
00:25
V
14 °C 10 km+ - 240° 240° 16 kt METAR EHMA 252225Z AUTO 24016KT 9999 NSC 14/08 Q1007

September 25, 2022

Time Code Weather Temp. Visibility Ceiling Wind METAR/SPECI
23:55
V
14 °C 10 km+ - 250° 250° 17 kt METAR EHMA 252155Z AUTO 25017KT 9999 FEW026 14/09 Q1008
23:25
V
14 °C 10 km+ - 250° 250° 14 kt METAR EHMA 252125Z AUTO 25014KT 9999 FEW026 SCT041 14/09 Q1008
22:55
V
13 °C 10 km+ - 220° 220° 12 kt METAR EHMA 252055Z AUTO 22012KT 9999 FEW031 13/10 Q1009
22:25
V
13 °C 10 km+ - 220° 220° 13 kt METAR EHMA 252025Z AUTO 22013KT 9999 FEW035 13/09 Q1009
21:55
V
14 °C 10 km+ - 230° 230° 12 kt METAR EHMA 251955Z AUTO 23012KT 9999 NSC 14/08 Q1010
21:25
V
14 °C 10 km+ - 230° 230° 11 kt METAR EHMA 251925Z AUTO 23011KT 9999 FEW041 SCT047 14/08 Q1010
20:55
V
14 °C 10 km+ - 240° 240° 12 kt METAR EHMA 251855Z AUTO 24012KT 9999 FEW049 14/08 Q1010
20:25
V
14 °C 10 km+ - 240° 240° 12 kt METAR EHMA 251825Z AUTO 24012KT 9999 NSC 14/08 Q1010
19:55
V
14 °C 10 km+ 4,000 ft 240° 240° 11 kt METAR EHMA 251755Z AUTO 24011KT 9999 FEW027 SCT031 BKN040 14/09 Q1011
19:25
V
14 °C 10 km+ 3,100 ft 240° 240° 8 kt METAR EHMA 251725Z AUTO 24008KT 9999 FEW027 BKN031 BKN039 14/08 Q1011 REDZ
18:55
V
14 °C 10 km+ - 250° 250° 9 kt METAR EHMA 251655Z AUTO 25009KT 220V280 9999 FEW032 14/07 Q1012
18:25
V
14 °C 10 km+ - 280° 280° 7 kt METAR EHMA 251625Z AUTO 28007KT 9999 FEW033 14/07 Q1012
17:55
V
14 °C 10 km+ - 290° 290° 9 kt METAR EHMA 251555Z AUTO 29009KT 9999 FEW033 14/07 Q1012
17:25
V
14 °C 10 km+ - 300° 300° 7 kt METAR EHMA 251525Z AUTO 30007KT 9999 FEW031 14/06 Q1013
16:55
V
14 °C 10 km+ - 300° 300° 6 kt METAR EHMA 251455Z AUTO 30006KT 9999 FEW031 14/07 Q1013
16:25
V
14 °C 10 km+ - 320° 320° 9 kt METAR EHMA 251425Z AUTO 32009KT 9999 FEW030 14/07 Q1013
15:55
V
14 °C 10 km+ - 320° 320° 10 kt METAR EHMA 251355Z AUTO 32010KT 9999 FEW031 14/07 Q1013
15:25
V
14 °C 10 km+ - 330° 330° 8 kt METAR EHMA 251325Z AUTO 33008KT 9999 FEW031 14/07 Q1014
14:55
V
14 °C 10 km+ - 330° 330° 8 kt METAR EHMA 251255Z AUTO 33008KT 9999 FEW033 14/07 Q1014
14:25
V
14 °C 10 km+ - 320° 320° 11 kt METAR EHMA 251225Z AUTO 32011KT 9999 FEW032 14/07 Q1014
13:55
V
14 °C 10 km+ - 340° 340° 10 kt METAR EHMA 251155Z AUTO 34010KT 9999 FEW032 14/08 Q1014
13:25
V
14 °C 10 km+ - 340° 340° 12 kt METAR EHMA 251125Z AUTO 34012KT 9999 NCD 14/06 Q1014
12:55
V
14 °C 10 km+ - 350° 350° 13 kt METAR EHMA 251055Z AUTO 35013KT 9999 FEW032 14/06 Q1014
12:25
V
14 °C 10 km+ - 360° 360° 12 kt METAR EHMA 251025Z AUTO 36012KT 9999 FEW026 14/07 Q1015
11:55
V
14 °C 10 km+ - 360° 360° 12 kt METAR EHMA 250955Z AUTO 36012KT 9999 FEW027 14/08 Q1015
11:25
V
13 °C 10 km+ - Var Var 5 kt METAR EHMA 250925Z AUTO VRB05KT 9999 FEW022 13/09 Q1015
10:55
V
13 °C 10 km+ - 010° 010° 10 kt METAR EHMA 250855Z AUTO 01010KT 9999 FEW023 13/08 Q1015
10:25
V
14 °C 10 km+ - 360° 360° 12 kt METAR EHMA 250825Z AUTO 36012KT 9999 -DZ FEW046 14/08 Q1015 REDZ
09:55
V
13 °C 10 km+ - 010° 010° 16 kt METAR EHMA 250755Z AUTO 01016KT 9999 FEW030 13/07 Q1015
09:25
V
13 °C 10 km+ - 360° 360° 20 kt METAR EHMA 250725Z AUTO 36020KT 9999 FEW022 SCT043 13/08 Q1015
08:55
V
14 °C 10 km+ - 360° 360° 13 kt METAR EHMA 250655Z AUTO 36013KT 9999 FEW026 14/09 Q1015
08:25
V
14 °C 10 km+ - 360° 360° 12 kt METAR EHMA 250625Z AUTO 36012KT 9999 NCD 14/07 Q1015
07:55
V
14 °C 10 km+ - 360° 360° 13 kt METAR EHMA 250555Z AUTO 36013KT 9999 FEW027 14/07 Q1015
07:25
V
14 °C 10 km+ - 010° 010° 15 kt METAR EHMA 250525Z AUTO 01015KT 9999 SCT026 SCT038 14/08 Q1015
06:55
V
14 °C 10 km+ - 010° 010° 16 kt METAR EHMA 250455Z AUTO 01016KT 9999 FEW026 SCT037 14/08 Q1015
06:25
V
14 °C 10 km+ 4,800 ft 010° 010° 18 kt METAR EHMA 250425Z AUTO 01018KT 9999 FEW021 SCT030 BKN048 14/08 Q1015
05:55
M
13 °C 7 km 4,800 ft 360° 360° 22 kt METAR EHMA 250355Z AUTO 36022KT 7000 -SHRA FEW018CB SCT025 BKN048 13/09 Q1015
05:25
V
14 °C 10 km+ - 360° 360° 18 kt METAR EHMA 250325Z AUTO 36018KT 9999 FEW020 14/08 Q1015
04:55
V
14 °C 10 km+ 3,000 ft 020° 020° 14 kt METAR EHMA 250255Z AUTO 02014KT 240V040 9999 FEW019 SCT026 BKN030 14/09 Q1015
04:25
V
14 °C 10 km+ 3,000 ft 010° 010° 15 kt METAR EHMA 250225Z AUTO 01015KT 9999 SCT025 BKN030 14/08 Q1015
03:55
V
14 °C 10 km+ - 010° 010° 16 kt METAR EHMA 250155Z AUTO 01016KT 9999 FEW027 SCT033 14/08 Q1015
03:25
V
14 °C 10 km+ - 010° 010° 19 kt METAR EHMA 250125Z AUTO 01019KT 9999 FEW024 SCT033 14/08 Q1015
02:55
V
15 °C 10 km+ - 010° 010° 20 kt METAR EHMA 250055Z AUTO 01020KT 9999 SCT024 SCT045 15/08 Q1015
02:25
V
14 °C 10 km+ - 360° 360° 20 kt METAR EHMA 250025Z AUTO 36020KT 9999 SCT024/// SCT045/// 14/09 Q1015
01:55
V
15 °C 10 km+ - 360° 360° 19 kt METAR EHMA 242355Z AUTO 36019KT 9999 SCT024 SCT029 15/08 Q1015
01:25
V
15 °C 10 km+ - 010° 010° 17 kt METAR EHMA 242325Z AUTO 01017KT 9999 FEW025 SCT030 15/09 Q1015
00:55
V
15 °C 10 km+ - 360° 360° 19 kt METAR EHMA 242255Z AUTO 36019KT 9999 FEW025 15/08 Q1015
00:25
V
15 °C 10 km+ - 010° 010° 19 kt METAR EHMA 242225Z AUTO 01019KT 9999 FEW025 SCT038 15/08 Q1015

September 24, 2022

Time Code Weather Temp. Visibility Ceiling Wind METAR/SPECI
23:55
V
15 °C 10 km+ 3,800 ft 010° 010° 19 kt METAR EHMA 242155Z AUTO 01019KT 9999 SCT024 SCT031 BKN038 15/09 Q1015
23:25
V
15 °C 10 km+ - 020° 020° 19 kt METAR EHMA 242125Z AUTO 02019KT 9999 FEW024 15/09 Q1015
22:55
V
15 °C 10 km+ - 010° 010° 21 kt METAR EHMA 242055Z AUTO 01021KT 9999 FEW026 15/09 Q1015
22:25
V
15 °C 10 km+ 3,600 ft 010° 010° 19 kt METAR EHMA 242025Z AUTO 01019KT 9999 SCT024 SCT028 BKN036 15/09 Q1015
21:55
V
15 °C 10 km+ 4,100 ft 010° 010° 19 kt METAR EHMA 241955Z AUTO 01019KT 9999 FEW023 SCT026 BKN041 15/10 Q1015
21:25
V
15 °C 10 km+ - 020° 020° 20 kt METAR EHMA 241925Z AUTO 02020KT 9999 FEW023 SCT039 15/09 Q1015
20:55
V
15 °C 10 km+ - 010° 010° 20 kt METAR EHMA 241855Z AUTO 01020KT 9999 FEW027 15/09 Q1015
20:25
V
15 °C 10 km+ 4,100 ft 020° 020° 19 kt METAR EHMA 241825Z AUTO 02019KT 9999 FEW024 SCT028 BKN041 15/09 Q1015
19:55
V
15 °C 10 km+ - 020° 020° 20 kt METAR EHMA 241755Z AUTO 02020KT 340V040 9999 FEW022 SCT030 15/09 Q1015
19:25
V
15 °C 10 km+ - 010° 010° 22 kt METAR EHMA 241725Z AUTO 01022KT 9999 FEW022 15/09 Q1014
18:55
V
15 °C 10 km+ - 010° 010° 21 kt METAR EHMA 241655Z AUTO 01021KT 9999 FEW024 15/09 Q1014
18:25
V
15 °C 10 km+ - 010° 010° 21 kt METAR EHMA 241625Z AUTO 01021KT 9999 FEW024 15/09 Q1014
17:55
V
15 °C 10 km+ - 010° 010° 22 kt METAR EHMA 241555Z AUTO 01022KT 9999 FEW024 15/09 Q1014
17:25
V
15 °C 10 km+ - 020° 020° 21 kt METAR EHMA 241525Z AUTO 02021KT 9999 FEW024 15/09 Q1014
16:55
V
15 °C 10 km+ - 010° 010° 22 kt METAR EHMA 241455Z AUTO 01022KT 9999 NSC 15/09 Q1014
Older data

We and third parties follow your internet behavior on our website with cookies. If you continue, we assume you agree with our cookie policy. Learn more